Location: N�rnberg
(49.4471°N, 11.0632°E)
Time: 19:43:09
(UTC+01:00)

ARIANE 6 FM1 Upper Stage - Pass Details

Date: 17 February 2026
Orbit: 523 x 607 km, 62.0° (Epoch: 11 March)

Event Time Altitude Azimuth Distance (km) Brightness Sun altitude
Rises 20:16:46 0° 303° (WNW) 2,659 7.2 -26.2°
Reaches altitude 10° 20:19:31 10° 284° (WNW) 1,768 6.2 -26.6°
Maximum altitude 20:22:09 17° 241° (WSW) 1,365 5.1 -27.1°
Enters shadow 20:23:36 15° 215° (SW) 1,498 5.0 -27.3°
